Location: Unspecified
(0.0000°N, 0.0000°E)
Time: 23:49:45
(UTC+00:00)

Envisat - Pass Details

Date: 30 November 2022
Orbit: 763 x 765 km, 98.2° (Epoch: 02 December)

Event Time Altitude Azimuth Distance (km) Brightness Sun altitude
Exits shadow 03:11:17 24° 81° (E) 1,528 4.9 -36.1°
Maximum altitude 03:12:25 27° 102° (ESE) 1,452 4.9 -35.8°
Drops below altitude 10° 03:16:37 10° 159° (SSE) 2,300 6.0 -34.9°
Sets 03:19:14 0° 171° (S) 3,228 6.7 -34.3°
